STARLINK-2559, 48298

Orbit data source: Space-Track

STARLINK-2559, 48298 is a payload satellite owned by SpaceX/Seattle (US) in LEO that was launched on Thu, 29 Apr 2021 UTC via an FALCON 9 launch vehicle from the Air Force Eastern Test Range (AFETR). Payload-class satellites include a variety of spacecraft equipped with specific instruments for various scientific and technological missions. These include communications satellites like Starlink; space stations such as the ISS; scientific satellites like the Hubble; Earth observation satellites from companies like Planet Labs, Umbra, and HawkEye 360; GPS; miniature CubeSats for education and research; and military/defense satellites.

Loading next visibility...
Identifier
48298, 2021-036Y
Orbit
LEO
Country
Flag of USUS
Related business
Manufacturer
SpaceX/Seattle
Mission
Operational Commercial Communications
Bus & Motor
STARLINK, Unknown motor
Mass
260 kg wet, ~248 kg dry
Launch date (UTC)
2021-04-29 (4 years ago)
Launch vehicle
FALCON 9
Launch site
Air Force Eastern Test Range (AFETR)
Object type
Payload
Rocket body
Debris
Shape & HBR
Box + 1 Pan, 10.1 m
Radar Cross Section
13.562 m², Large (>1 m²)

Expand to show TLE details & history
Last TLE update: 15 hours ago

TLE from 15 hours ago
0 STARLINK-2559
1 48298U 21036Y   25291.22912030  .00001558  00000-0  12348-3 0  9991
2 48298  53.0550   1.1477 0001472  89.9550 270.1608 15.06401991246845
Epoch: 2025-10-18T05:29Z
TLE epoch observation values (Epoch: 2025-10-18T05:29:55.993Z)
Latitude
-0.00002°
Longitude
-108.29875°
Altitude
548.082 km
Speed
7.589 km/s
True Right ascension
00h 04m 35s
True Declination
0° 00' 00"
Sunlit
Object was in full shadow at epoch
Visualization orbit readout
Latitude
Unknown
Longitude
Unknown
Altitude
Unknown
Speed
Unknown
Apparent Right ascension
Unknown
Apparent Declination
Unknown
Sunlit
N/A
Visualization observer readout
Local Sidereal Time
15:38:30
Azimuth
Unknown
Elevation
Unknown
Doppler factor
Unknown
Orbital elements
Apogee altitude
548.496 km
Perigee altitude
546.457 km
Semi-major axis
6,925.613 km
Eccentricity
0.00015
Inclination
53.055°
RAAN
1.1477°
Arg. of periapsis
89.955°
True anomaly
270.14393°
Mean anomaly
270.1608°
Eccentric anomaly
270.15237°
Mean motion
3.76579 °/min
Orbital period
95.6 mins
BSTAR
0.00012348
Loading maneuver chart data...
Computing Atmospheric mass density...
Loading historical data...
Loading historical data...
Loading historical data...
Loading historical data...
Loading historical data...
Loading historical data...
Loading historical data...

Documentation

Showing up to 5 results
|